User: anonymous   Login
Location: Chèvreville
(49.1099°N, 2.8495°E)
Time: 04:26:35
(UTC+00:00)
Language:

Cosmos 1844 - Orbit

View from above orbital plane
View from above orbital plane
View from above satellite
View from above satellite

Ground track
Ground track

The orbit data is extracted from the following two-line orbital elements,

1 17973U 87041A   24111.85967578  .00000456  00000-0  26290-3 0  9998
2 17973  70.8998  44.7308 0031702 331.5438  28.3951 14.14306510906329
Epoch (UTC): 20 April 2024 20:37:55
Eccentricity: 0.0031702
inclination: 70.8998°
perigee height: 822 km
apogee height: 867 km
right ascension of ascending node: 44.7308°
argument of perigee: 331.5438°
revolutions per day: 14.14306510
mean anomaly at epoch: 28.3951°
orbit number at epoch: 90632

The dashed part of the orbit path shows where the satellite is in the earth's shadow,  

DLR